Regional Weather Roundup
Issued by NWS

Home | Current Version | Previous Version | Graphics & Text | Print | Product List | Glossary Off
Versions: 1 2 3 4 5 6 7 8 9 10 11 12 13 14 15 16 17 18 19 20 21 22 23 24 25 26 27 28 29 30 31 32 33 34 35 36 37 38 39 40 41 42 43 44 45 46 47 48 49 50

416
ASUS43 KMPX 291001
RWRMN
WEATHER ROUNDUP FOR MINNESOTA
NATIONAL WEATHER SERVICE TWIN CITIES/CHANHASSEN MN
500 AM CDT FRI JUL 29 2016


NOTE: "FAIR" INDICATES FEW OR NO CLOUDS BELOW 12,000 FEET WITH NO
SIGNIFICANT WEATHER AND/OR OBSTRUCTIONS TO VISIBILITY. N/A MEANS
CURRENT SKY AND/OR WEATHER CONDITIONS ARE NOT AVAILABLE.

MNZ060>063-068>070-291100-
   Twin Cities Metro

CITY           SKY/WX    TMP DP  RH WIND       PRES   REMARKS
TWIN CITIES    PTCLDY    62  56  80 N7        30.05S
ST PAUL        CLOUDY    63  57  81 CALM      30.06R
CRYSTAL        CLEAR     59  53  80 N5        30.05S
BLAINE         CLEAR     59  57  94 N6        30.06S
LAKEVILLE      CLOUDY    63  59  88 N6        30.04S
EDEN PRAIRIE   CLEAR     62  56  80 N7        30.04S
LAKEVILLE      CLOUDY    63  59  88 N6        30.04S
SOUTH ST PAUL  CLOUDY    64  56  75 N7        30.05S
LAKE ELMO      CLOUDY    61  57  88 N3        30.07S
$$
MNZ001>005-007-008-013>017-022>024-027-028-291100-
   Northwest Minnesota

CITY           SKY/WX    TMP DP  RH WIND       PRES   REMARKS
BEMIDJI        CLEAR     52  50  93 CALM      30.10S
HALLOCK        CLEAR     52  50  93 CALM      30.09S
ROSEAU         CLEAR     52  46  82 CALM      30.10F
WARROAD        CLEAR     54  48  82 CALM      30.11S
THIEF RVR FALL CLEAR     54  53  97 CALM      30.10F
CROOKSTON      CLEAR     55  55 100 CALM      30.09F
FOSSTON        CLEAR     48  46  93 CALM      30.10S
DETROIT LAKES  CLEAR     61  59  94 CALM      30.10S
MOORHEAD       MOCLDY    57  55  94 CALM      30.09S
PARK RAPIDS    CLEAR     58  55  90 CALM      30.10S
MAHNOMEN       FAIR      54  54  99 CALM      30.09S
$$
MNZ006-009>011-018-025>026-291100-
   North Central Minnesota

CITY           SKY/WX    TMP DP  RH WIND       PRES   REMARKS
BAUDETTE       PTCLDY    52  51  97 CALM      30.09S
FLAG ISLAND    CLEAR     63  57  82 NW5       30.09S
INTL FALLS     CLEAR     49  47  93 S3        30.11R
WASKISH        MOCLDY    55  54  94 CALM      30.09S
BIG FORK       MOCLDY    52  52 100 CALM      30.11S
LONGVILLE      PTCLDY    52  52 100 CALM      30.10S
GRAND RAPIDS   MOCLDY    53  52  96 CALM      30.14R
CRANE LAKE     MOCLDY    48  46  93 CALM      30.14S
ORR            CLEAR     54  48  82 CALM      30.10S
COOK           PTCLDY    52  50  93 CALM      30.13S
WALKER         FAIR      54  53  98 CALM      30.10S
$$
MNZ012-019>021-037-291100-
   Northeast Minnesota

CITY           SKY/WX    TMP DP  RH WIND       PRES   REMARKS
DULUTH         PTCLDY    51  50  96 N3        30.12R
ELY            PTCLDY    46  46 100 CALM      30.14S
HIBBING        MOCLDY    45  45 100 CALM      30.13R
EVELETH        MOCLDY    46  46  97 CALM      30.14S
DULUTH HARBOR  CLEAR     57  55  94 S3        30.11S
TWO HARBORS    CLEAR     54  48  82 CALM      30.10S
SILVER BAY     CLEAR     46  46 100 CALM      30.10S
GRAND MARAIS     N/A     58  51  78 CALM      30.10S
G MARAIS ARPRT CLEAR     45  43  93 NW5       30.15S
$$
MNZ029>031-032-039>041-046>048-054>057-064-291100-
   West Central Minnesota

CITY           SKY/WX    TMP DP  RH WIND       PRES   REMARKS
FERGUS FALLS   CLEAR     61  61 100 CALM      30.09F
WHEATON        CLEAR     63  61  94 SW1       30.09F
MORRIS         CLEAR     59  57  94 NE3       30.07S
ALEXANDRIA     CLEAR     57  54  89 E3        30.10S
ELBOW LAKE     FAIR      62  60  96 SE3       30.08F
WADENA         CLEAR     54  52  94 CALM      30.09S FOG
GLENWOOD       CLEAR     57  55  94 NE8       30.09F
APPLETON       CLEAR     57  55  94 CALM      30.08R
BENSON         CLEAR     54  50  87 N6        30.08S
ORTONVILLE     CLEAR     63  59  88 CALM      30.08R
MADISON        CLEAR     57  57 100 CALM      30.08S
WILLMAR        FAIR      57  55  94 CALM      30.08S
$$
MNZ033>034-036-042>043-049>051-058-059-291100-
   Central Minnesota

CITY           SKY/WX    TMP DP  RH WIND       PRES   REMARKS
ST CLOUD       CLEAR     55  54  96 N5        30.08S
SAUK CENTRE    FAIR      52  52  99 CALM      30.09S
PAYNESVILLE    CLEAR     55  55 100 CALM      30.08F
AITKIN         MOCLDY    55  52  88 CALM      30.10S FOG
PINE RIVER     CLEAR     52  52 100 CALM      30.13F
BRAINERD       MOCLDY    59  57  93 NE3       30.11S
STAPLES        CLEAR     54  54 100 CALM      30.10S
LONG PRAIRIE   FAIR      54  54 100 CALM      30.10S
LITTLE FALLS   CLEAR     55  54  94 NE3       30.10S
LITCHFIELD     CLEAR     61  57  88 N3        30.07F
BUFFALO        CLEAR     58  54  84 NE5       30.07S
MAPLE LAKE     CLEAR     58  55  87 CALM      30.08S
HUTCHINSON     CLEAR     60  57  89 NE5       30.07S
$$
MNZ037-044-045-052-053-291100-
   East Central Minnesota

CITY           SKY/WX    TMP DP  RH WIND       PRES   REMARKS
PRINCETON      CLEAR     57  54  88 N3        30.08S
MORA           CLEAR     54  52  94 CALM      30.10F
CAMBRIDGE      CLEAR     57  50  77 N3        30.06S
RUSH CITY      CLOUDY    53  51  92 NE5       30.08S
MOOSE LAKE     CLEAR     52  52 100 CALM      30.09S
HINCKLEY       FAIR      54  54 100 NE5       30.10S
CLOQUET        CLEAR     48  46  93 CALM      30.11S
MCGREGOR       CLOUDY    55  54  94 CALM      30.12S
$$
MNZ071>073-080-081-089-090-097-098-291100-
   Southwest Minnesota

CITY           SKY/WX    TMP DP  RH WIND       PRES   REMARKS
MONTEVIDEO     CLEAR     55  52  88 CALM      30.10R
GRANITE FALLS  CLEAR     56  55  95 CALM      30.09S
CANBY          CLEAR     57  55  92 CALM      30.09S
MARSHALL       CLEAR     53  51  93 W3        30.08S
REDWOOD FALLS  CLEAR     57  54  89 NW7       30.07R
OLIVIA         CLEAR     54  52  94 CALM      30.06S
PIPESTONE      CLEAR     59  54  82 VRB2      30.08S
WINDOM         MOCLDY    59  57  94 N6        30.05F
WORTHINGTON    CLEAR     56  54  93 N7        30.06F
JACKSON        CLEAR     59  55  88 CALM      30.06S
TRACY          CLEAR     57  55  94 NW6       30.08S
SLAYTON        CLEAR     56  54  93 W5        30.08S
$$
MNZ065>067-074>077-082>085-091>093-291100-
   South Central Minnesota

CITY           SKY/WX    TMP DP  RH WIND       PRES   REMARKS
MANKATO        MOCLDY    63  55  77 N7        30.04S
NEW ULM        PTCLDY    61  57  88 NE5       30.06R
ST JAMES       CLOUDY    57  55  94 CALM      30.05F
FAIRMONT       CLOUDY    61  54  77 N6        30.02F
GLENCOE        CLEAR     60  58  94 CALM      30.06S
FARIBAULT      CLOUDY    64  63  94 N3        30.04S
OWATONNA       CLOUDY    64  61  88 NE3       30.04S
WASECA         CLOUDY    63  59  88 NE6       30.05S
ALBERT LEA     DRIZZLE   64  61  88 N7        30.02S
$$
MNZ078>079-086>088-094>096-291100-
   Southeast Minnesota

CITY           SKY/WX    TMP DP  RH WIND       PRES   REMARKS
ROCHESTER      CLOUDY    64  61  90 NE9       30.03S
RED WING       CLOUDY    64  61  88 N3        30.03R
STANTON        CLOUDY    64  63  94 CALM      30.03S
DODGE CENTER   CLOUDY   N/A N/A N/A NE9       30.03S
WINONA         CLOUDY    66  61  82 NE5       30.01S
AUSTIN         LGT RAIN  63  57  82 NE6       30.01S
PRESTON        CLOUDY    61  59  93 NE8       30.01S
$$
ABBREVIATIONS USED IN REMARKS
   TC - TEMPERATURES IN CELSIUS
  WCI - WIND CHILL INDEX
   HX - HEAT INDEX
  VSB - VISIBILITY
$$




USA.gov is the U.S. government's official web portal to all federal, state and local government web resources and services.